Zurück zum Katalog

FENGYUN 1C DEB

AktivPO
NORAD 32451·DEBRIS·🇨🇳 China

Gestartet May 10, 1999 von Taiyuan Satellite Launch Center

Loading…

Nächste Überflüge (nächste 24 Stunden)

TLE

AktuellSource: Space-Track

Epoche: Sep 14, 2026, 05:54 UTC

1 32451U 99025DBP 26257.24583350  .00001763  00000-0  13297-2 0  9993
2 32451  99.9874 260.8226 0182436 191.8135 167.8711 13.88179828655856

Verfolge FENGYUN 1C DEB in Echtzeit mit AllMySat

Download on the App Store